This demonstration page uses our WeatherBlox Daily Observations layout. Learn more.

Left ArrowRight Arrow

39.01783, -85.05884

Hourly Observations for August 30, 2022

Temp ( °F °C ) Dew Point ( °F °C ) Humidity (%) Winds ( mph kmh ) Pressure ( in mb ) Visibility ( mi km ) Precip ( " mm )
12:52 am 00:52 Partly Cloudy 71 21.7 70 21.1 96 96 S 9 15 29.94 1014 10 16 0.00 0.00
1:52 am 01:52 Cloudy 71 21.7 70 21.1 96 96 S 8 13 29.94 1014 9 14 0.00 0.00
2:52 am 02:52 Mostly Cloudy 71 21.7 70 21.1 96 96 SSW 6 9 29.91 1013 9 14 0.00 0.00
3:21 am 03:21 Windy with Storms Likely 71 21.7 70 21.1 96 96 NW 22 35 29.93 1014 2 3 0.01 0.13
3:38 am 03:38 Cloudy with Nearby Thunderstorms 70 21.1 69 20.6 97 97 NNW 13 20 29.93 1014 2 3 0.58 14.73
3:52 am 03:52 Cloudy with Nearby Thunderstorms 70 21.1 69 20.6 97 97 N 8 13 29.91 1013 6 10 0.59 14.99
3:57 am 03:57 Cloudy with Light Rain 70 21.1 69 20.6 97 97 NNW 8 13 29.92 1013 10 16 0.01 0.13
4:13 am 04:13 Cloudy with Nearby Thunderstorms 70 21.1 69 20.6 97 97 Calm 29.92 1013 9 14 0.01 0.13
4:20 am 04:20 Cloudy with Thunderstorms 69 20.6 69 20.6 100 100 SSW 5 7 29.93 1013 5 8 0.01 0.13
4:52 am 04:52 Partly Cloudy with Light Rain 69 20.6 69 20.6 100 100 ESE 8 13 29.88 1012 3 5 0.06 1.52
5:39 am 05:39 Cloudy 70 21.1 35 1.7 28 28 SSW 5 7 29.89 1012 7 11 0.01 0.13
5:52 am 05:52 Cloudy 70 21.1 42 5.6 36 36 SW 6 9 29.91 1013 7 11 0.01 0.13
6:25 am 06:25 Cloudy with Mist and Fog 70 21.1 69 20.6 97 97 W 5 7 29.92 1013 2 3 0.00 0.00
6:52 am 06:52 Cloudy with Mist and Fog 70 21.1 70 21.1 100 100 WSW 5 7 29.92 1013 2 3 0.00 0.00
7:52 am 07:52 Cloudy with Drizzle 70 21.1 70 21.1 100 100 SW 5 7 29.92 1013 2 3 0.01 0.13
8:31 am 08:31 Cloudy with Mist and Fog 70 21.1 70 21.1 100 100 W 3 6 29.92 1013 3 5 0.01 0.13
8:52 am 08:52 Cloudy 71 21.7 70 21.1 96 96 W 7 11 29.92 1013 7 11 0.01 0.13
9:52 am 09:52 Cloudy 71 21.7 69 20.6 93 93 W 9 15 29.94 1014 10 16 0.00 0.00
10:30 am 10:30 Cloudy 73 22.8 69 20.6 87 87 W 10 17 29.95 1014 10 16 0.00 0.00
10:52 am 10:52 Cloudy 73 22.8 69 20.6 87 87 WNW 9 15 29.95 1014 10 16 0.00 0.00
11:10 am 11:10 Cloudy 74 23.3 69 20.6 85 85 WNW 12 19 29.96 1015 10 16 0.00 0.00
11:52 am 11:52 Mostly Cloudy 76 24.4 68 20 77 77 W 12 19 29.96 1015 10 16 0.00 0.00
12:52 pm 12:52 Partly Cloudy 79 26.1 68 20 69 69 W 12 19 29.95 1014 10 16 0.00 0.00
1:52 pm 13:52 Partly Cloudy 82 27.8 64 17.8 55 55 NNW 12 19 29.94 1014 10 16 0.00 0.00
2:52 pm 14:52 Partly Cloudy 82 27.8 61 16.1 49 49 WNW 12 19 29.93 1014 10 16 0.00 0.00
3:52 pm 15:52 Mostly Sunny 82 27.8 60 15.6 47 47 WNW 15 24 29.91 1013 10 16 0.00 0.00
4:52 pm 16:52 Mostly Sunny 80 26.7 60 15.6 51 51 WNW 12 19 29.91 1013 10 16 0.00 0.00
5:52 pm 17:52 Mostly Sunny 81 27.2 60 15.6 49 49 WNW 16 26 29.90 1013 10 16 0.00 0.00
6:52 pm 18:52 Mostly Sunny 78 25.6 61 16.1 56 56 WNW 13 20 29.91 1013 10 16 0.00 0.00
7:52 pm 19:52 Mostly Sunny 76 24.4 62 16.7 62 62 WNW 8 13 29.91 1013 10 16 0.00 0.00
8:52 pm 20:52 Mostly Clear 71 21.7 62 16.7 73 73 WNW 6 9 29.94 1014 10 16 0.00 0.00
9:52 pm 21:52 Mostly Clear 69 20.6 60 15.6 73 73 W 6 9 29.97 1015 10 16 0.00 0.00
10:52 pm 22:52 Mostly Clear 71 21.7 59 15 66 66 WNW 7 11 29.98 1015 10 16 0.00 0.00
11:52 pm 23:52 Clear 69 20.6 59 15 70 70 NW 8 13 29.99 1016 10 16 0.00 0.00

Powered by AerisWeather